owner,sensor,date,latitude,longitude,vertical_datum,mass_concentration_of_oxygen_in_sea_water,qcFlag 
LUMCON,ioos:station:LUMCON:101:1,2019-10-01T00:00:00Z,29.2533,-90.6633,2.169,8.34,11111222 
LUMCON,ioos:station:LUMCON:101:1,2019-10-01T00:15:00Z,29.2533,-90.6633,2.173,8.2,11111222 
LUMCON,ioos:station:LUMCON:101:1,2019-10-01T00:30:00Z,29.2533,-90.6633,2.175,7.95,11111222 
LUMCON,ioos:station:LUMCON:101:1,2019-10-01T00:45:00Z,29.2533,-90.6633,2.173,8.13,11111222 
LUMCON,ioos:station:LUMCON:101:1,2019-10-01T01:00:00Z,29.2533,-90.6633,2.172,8.02,11111222 
LUMCON,ioos:station:LUMCON:101:1,2019-10-01T01:15:00Z,29.2533,-90.6633,2.175,8.67,11111222 
LUMCON,ioos:station:LUMCON:101:1,2019-10-01T01:30:00Z,29.2533,-90.6633,2.178,8.73,11111222 
LUMCON,ioos:station:LUMCON:101:1,2019-10-01T01:45:00Z,29.2533,-90.6633,2.184,8.34,11111222 
LUMCON,ioos:station:LUMCON:101:1,2019-10-01T02:00:00Z,29.2533,-90.6633,2.19,8.3,11111222 
LUMCON,ioos:station:LUMCON:101:1,2019-10-01T02:15:00Z,29.2533,-90.6633,2.193,8.44,11111222 
LUMCON,ioos:station:LUMCON:101:1,2019-10-01T02:30:00Z,29.2533,-90.6633,2.2,8.28,11111222 
LUMCON,ioos:station:LUMCON:101:1,2019-10-01T02:45:00Z,29.2533,-90.6633,2.207,8.33,11111222 
LUMCON,ioos:station:LUMCON:101:1,2019-10-01T03:00:00Z,29.2533,-90.6633,2.213,8.29,11111222 
LUMCON,ioos:station:LUMCON:101:1,2019-10-01T03:15:00Z,29.2533,-90.6633,2.219,8.25,11111222 
LUMCON,ioos:station:LUMCON:101:1,2019-10-01T03:30:00Z,29.2533,-90.6633,2.223,8.35,11111222 
LUMCON,ioos:station:LUMCON:101:1,2019-10-01T03:45:00Z,29.2533,-90.6633,2.223,8.07,11111222 
LUMCON,ioos:station:LUMCON:101:1,2019-10-01T04:00:00Z,29.2533,-90.6633,2.225,8.15,11111222 
LUMCON,ioos:station:LUMCON:101:1,2019-10-01T04:15:00Z,29.2533,-90.6633,2.227,8.04,11111222 
LUMCON,ioos:station:LUMCON:101:1,2019-10-01T04:30:00Z,29.2533,-90.6633,2.227,8.09,11111222 
LUMCON,ioos:station:LUMCON:101:1,2019-10-01T04:45:00Z,29.2533,-90.6633,2.223,7.84,11111222 
LUMCON,ioos:station:LUMCON:101:1,2019-10-01T05:00:00Z,29.2533,-90.6633,2.224,8.08,11111222 
LUMCON,ioos:station:LUMCON:101:1,2019-10-01T05:15:00Z,29.2533,-90.6633,2.226,8.05,11111222 
LUMCON,ioos:station:LUMCON:101:1,2019-10-01T05:30:00Z,29.2533,-90.6633,2.226,7.66,11111222 
LUMCON,ioos:station:LUMCON:101:1,2019-10-01T05:45:00Z,29.2533,-90.6633,2.226,7.71,11111222 
LUMCON,ioos:station:LUMCON:101:1,2019-10-01T06:00:00Z,29.2533,-90.6633,2.224,7.76,11111222 
LUMCON,ioos:station:LUMCON:101:1,2019-10-01T06:15:00Z,29.2533,-90.6633,2.228,8.1,11111222 
LUMCON,ioos:station:LUMCON:101:1,2019-10-01T06:30:00Z,29.2533,-90.6633,2.23,7.94,11111222 
LUMCON,ioos:station:LUMCON:101:1,2019-10-01T06:45:00Z,29.2533,-90.6633,2.232,7.75,11111222 
LUMCON,ioos:station:LUMCON:101:1,2019-10-01T07:00:00Z,29.2533,-90.6633,2.234,7.84,11111222 
LUMCON,ioos:station:LUMCON:101:1,2019-10-01T07:15:00Z,29.2533,-90.6633,2.234,7.74,11111222 
LUMCON,ioos:station:LUMCON:101:1,2019-10-01T07:30:00Z,29.2533,-90.6633,2.236,7.58,11111222 
LUMCON,ioos:station:LUMCON:101:1,2019-10-01T07:45:00Z,29.2533,-90.6633,2.234,7.41,11111222 
LUMCON,ioos:station:LUMCON:101:1,2019-10-01T08:00:00Z,29.2533,-90.6633,2.233,6.95,11111222 
LUMCON,ioos:station:LUMCON:101:1,2019-10-01T08:15:00Z,29.2533,-90.6633,2.234,7.22,11111222 
LUMCON,ioos:station:LUMCON:101:1,2019-10-01T08:30:00Z,29.2533,-90.6633,2.231,6.47,11111222 
LUMCON,ioos:station:LUMCON:101:1,2019-10-01T08:45:00Z,29.2533,-90.6633,2.223,6.54,11111222 
LUMCON,ioos:station:LUMCON:101:1,2019-10-01T09:00:00Z,29.2533,-90.6633,2.217,7.13,11111222 
LUMCON,ioos:station:LUMCON:101:1,2019-10-01T09:15:00Z,29.2533,-90.6633,2.207,7.01,11111222 
LUMCON,ioos:station:LUMCON:101:1,2019-10-01T09:30:00Z,29.2533,-90.6633,2.197,6.77,11111222 
LUMCON,ioos:station:LUMCON:101:1,2019-10-01T09:45:00Z,29.2533,-90.6633,2.191,6.63,11111222 
LUMCON,ioos:station:LUMCON:101:1,2019-10-01T10:00:00Z,29.2533,-90.6633,2.184,6.37,11111222 
LUMCON,ioos:station:LUMCON:101:1,2019-10-01T10:15:00Z,29.2533,-90.6633,2.177,6.01,11111222 
LUMCON,ioos:station:LUMCON:101:1,2019-10-01T10:30:00Z,29.2533,-90.6633,2.165,5.62,11111222 
LUMCON,ioos:station:LUMCON:101:1,2019-10-01T10:45:00Z,29.2533,-90.6633,2.156,5.36,11111222 
LUMCON,ioos:station:LUMCON:101:1,2019-10-01T11:00:00Z,29.2533,-90.6633,2.145,5.14,11111222 
LUMCON,ioos:station:LUMCON:101:1,2019-10-01T11:15:00Z,29.2533,-90.6633,2.135,4.95,11111222 
LUMCON,ioos:station:LUMCON:101:1,2019-10-01T11:30:00Z,29.2533,-90.6633,2.125,4.99,11111222 
LUMCON,ioos:station:LUMCON:101:1,2019-10-01T11:45:00Z,29.2533,-90.6633,2.117,4.65,11111222 
LUMCON,ioos:station:LUMCON:101:1,2019-10-01T12:00:00Z,29.2533,-90.6633,2.107,4.63,11111222 
LUMCON,ioos:station:LUMCON:101:1,2019-10-01T12:15:00Z,29.2533,-90.6633,2.094,4.32,11111222 
LUMCON,ioos:station:LUMCON:101:1,2019-10-01T12:30:00Z,29.2533,-90.6633,2.083,4.2,11111222 
LUMCON,ioos:station:LUMCON:101:1,2019-10-01T12:45:00Z,29.2533,-90.6633,2.071,3.91,11111222 
LUMCON,ioos:station:LUMCON:101:1,2019-10-01T13:00:00Z,29.2533,-90.6633,2.059,3.8,11111222 
LUMCON,ioos:station:LUMCON:101:1,2019-10-01T13:15:00Z,29.2533,-90.6633,2.05,3.82,11111222 
LUMCON,ioos:station:LUMCON:101:1,2019-10-01T13:30:00Z,29.2533,-90.6633,2.041,3.7,11111222 
LUMCON,ioos:station:LUMCON:101:1,2019-10-01T13:45:00Z,29.2533,-90.6633,2.035,3.7,11111222 
LUMCON,ioos:station:LUMCON:101:1,2019-10-01T14:00:00Z,29.2533,-90.6633,2.023,3.66,11111222 
LUMCON,ioos:station:LUMCON:101:1,2019-10-01T14:15:00Z,29.2533,-90.6633,2.012,3.68,11111222 
LUMCON,ioos:station:LUMCON:101:1,2019-10-01T14:30:00Z,29.2533,-90.6633,2.004,3.87,11111222 
LUMCON,ioos:station:LUMCON:101:1,2019-10-01T14:45:00Z,29.2533,-90.6633,1.994,3.87,11111222 
LUMCON,ioos:station:LUMCON:101:1,2019-10-01T15:00:00Z,29.2533,-90.6633,1.987,4.06,11111222 
LUMCON,ioos:station:LUMCON:101:1,2019-10-01T15:15:00Z,29.2533,-90.6633,1.981,4.25,11111222 
LUMCON,ioos:station:LUMCON:101:1,2019-10-01T15:30:00Z,29.2533,-90.6633,1.975,4.18,11111222 
LUMCON,ioos:station:LUMCON:101:1,2019-10-01T15:45:00Z,29.2533,-90.6633,1.973,4.37,11111222 
LUMCON,ioos:station:LUMCON:101:1,2019-10-01T16:00:00Z,29.2533,-90.6633,1.967,4.64,11111222 
LUMCON,ioos:station:LUMCON:101:1,2019-10-01T16:15:00Z,29.2533,-90.6633,1.962,4.54,11111222 
LUMCON,ioos:station:LUMCON:101:1,2019-10-01T16:30:00Z,29.2533,-90.6633,1.958,4.73,11111222 
LUMCON,ioos:station:LUMCON:101:1,2019-10-01T16:45:00Z,29.2533,-90.6633,1.951,4.83,11111222 
LUMCON,ioos:station:LUMCON:101:1,2019-10-01T17:00:00Z,29.2533,-90.6633,1.947,4.95,11111222 
LUMCON,ioos:station:LUMCON:101:1,2019-10-01T17:15:00Z,29.2533,-90.6633,1.945,5.11,11111222 
LUMCON,ioos:station:LUMCON:101:1,2019-10-01T17:30:00Z,29.2533,-90.6633,1.944,5.16,11111222 
LUMCON,ioos:station:LUMCON:101:1,2019-10-01T17:45:00Z,29.2533,-90.6633,1.945,5.2,11111222 
LUMCON,ioos:station:LUMCON:101:1,2019-10-01T18:00:00Z,29.2533,-90.6633,1.946,5.26,11111222 
LUMCON,ioos:station:LUMCON:101:1,2019-10-01T18:15:00Z,29.2533,-90.6633,1.949,5.16,11111222 
LUMCON,ioos:station:LUMCON:101:1,2019-10-01T18:30:00Z,29.2533,-90.6633,1.949,5.52,11111222 
LUMCON,ioos:station:LUMCON:101:1,2019-10-01T18:45:00Z,29.2533,-90.6633,1.955,4.44,11111222 
LUMCON,ioos:station:LUMCON:101:1,2019-10-01T19:00:00Z,29.2533,-90.6633,1.962,5.36,11111222 
LUMCON,ioos:station:LUMCON:101:1,2019-10-01T19:15:00Z,29.2533,-90.6633,1.978,6.17,11111222 
LUMCON,ioos:station:LUMCON:101:1,2019-10-01T19:30:00Z,29.2533,-90.6633,1.991,6.45,11111222 
LUMCON,ioos:station:LUMCON:101:1,2019-10-01T19:45:00Z,29.2533,-90.6633,1.996,6.31,11111222 
LUMCON,ioos:station:LUMCON:101:1,2019-10-01T20:00:00Z,29.2533,-90.6633,2.005,6.31,11111222 
LUMCON,ioos:station:LUMCON:101:1,2019-10-01T20:15:00Z,29.2533,-90.6633,2.015,7.1,11111222 
LUMCON,ioos:station:LUMCON:101:1,2019-10-01T20:30:00Z,29.2533,-90.6633,2.026,7.32,11111222 
LUMCON,ioos:station:LUMCON:101:1,2019-10-01T20:45:00Z,29.2533,-90.6633,2.036,7.43,11111222 
LUMCON,ioos:station:LUMCON:101:1,2019-10-01T21:00:00Z,29.2533,-90.6633,2.05,7.43,11111222 
LUMCON,ioos:station:LUMCON:101:1,2019-10-01T21:15:00Z,29.2533,-90.6633,2.059,7.37,11111222 
LUMCON,ioos:station:LUMCON:101:1,2019-10-01T21:30:00Z,29.2533,-90.6633,2.07,7.66,11111222 
LUMCON,ioos:station:LUMCON:101:1,2019-10-01T21:45:00Z,29.2533,-90.6633,2.08,8.18,11111222 
LUMCON,ioos:station:LUMCON:101:1,2019-10-01T22:00:00Z,29.2533,-90.6633,2.092,8.17,11111222 
LUMCON,ioos:station:LUMCON:101:1,2019-10-01T22:15:00Z,29.2533,-90.6633,2.102,8.24,11111222 
LUMCON,ioos:station:LUMCON:101:1,2019-10-01T22:30:00Z,29.2533,-90.6633,2.113,8.39,11111222 
LUMCON,ioos:station:LUMCON:101:1,2019-10-01T22:45:00Z,29.2533,-90.6633,2.122,8.21,11111222 
LUMCON,ioos:station:LUMCON:101:1,2019-10-01T23:00:00Z,29.2533,-90.6633,2.127,8.27,11111222 
LUMCON,ioos:station:LUMCON:101:1,2019-10-01T23:15:00Z,29.2533,-90.6633,2.137,8.48,11111222 
LUMCON,ioos:station:LUMCON:101:1,2019-10-01T23:30:00Z,29.2533,-90.6633,2.144,8.3,11111222 
LUMCON,ioos:station:LUMCON:101:1,2019-10-01T23:45:00Z,29.2533,-90.6633,2.152,8.19,11111222 
LUMCON,ioos:station:LUMCON:101:1,2019-10-02T00:00:00Z,29.2533,-90.6633,2.157,8.36,11111222 
LUMCON,ioos:station:LUMCON:101:1,2019-10-02T00:15:00Z,29.2533,-90.6633,2.163,8.35,11111222 
LUMCON,ioos:station:LUMCON:101:1,2019-10-02T00:30:00Z,29.2533,-90.6633,2.168,8.2,11111222 
LUMCON,ioos:station:LUMCON:101:1,2019-10-02T00:45:00Z,29.2533,-90.6633,2.173,8.5,11111222 
LUMCON,ioos:station:LUMCON:101:1,2019-10-02T01:00:00Z,29.2533,-90.6633,2.182,8.87,11111222 
LUMCON,ioos:station:LUMCON:101:1,2019-10-02T01:15:00Z,29.2533,-90.6633,2.187,8.65,11111222 
LUMCON,ioos:station:LUMCON:101:1,2019-10-02T01:30:00Z,29.2533,-90.6633,2.192,8.38,11111222 
LUMCON,ioos:station:LUMCON:101:1,2019-10-02T01:45:00Z,29.2533,-90.6633,2.198,8.48,11111222 
LUMCON,ioos:station:LUMCON:101:1,2019-10-02T02:00:00Z,29.2533,-90.6633,2.205,8.51,11111222 
LUMCON,ioos:station:LUMCON:101:1,2019-10-02T02:15:00Z,29.2533,-90.6633,2.209,8.49,11111222 
LUMCON,ioos:station:LUMCON:101:1,2019-10-02T02:30:00Z,29.2533,-90.6633,2.214,8.45,11111222 
LUMCON,ioos:station:LUMCON:101:1,2019-10-02T02:45:00Z,29.2533,-90.6633,2.219,8.53,11111222 
LUMCON,ioos:station:LUMCON:101:1,2019-10-02T03:00:00Z,29.2533,-90.6633,2.225,8.36,11111222 
LUMCON,ioos:station:LUMCON:101:1,2019-10-02T03:15:00Z,29.2533,-90.6633,2.23,8.55,11111222 
LUMCON,ioos:station:LUMCON:101:1,2019-10-02T03:30:00Z,29.2533,-90.6633,2.234,8.41,11111222 
LUMCON,ioos:station:LUMCON:101:1,2019-10-02T03:45:00Z,29.2533,-90.6633,2.243,8.46,11111222 
LUMCON,ioos:station:LUMCON:101:1,2019-10-02T04:00:00Z,29.2533,-90.6633,2.249,8.46,11111222 
LUMCON,ioos:station:LUMCON:101:1,2019-10-02T04:15:00Z,29.2533,-90.6633,2.255,8.44,11111222 
LUMCON,ioos:station:LUMCON:101:1,2019-10-02T04:30:00Z,29.2533,-90.6633,2.261,8.39,11111222 
LUMCON,ioos:station:LUMCON:101:1,2019-10-02T04:45:00Z,29.2533,-90.6633,2.268,8.22,11111222 
LUMCON,ioos:station:LUMCON:101:1,2019-10-02T05:00:00Z,29.2533,-90.6633,2.272,8.2,11111222 
LUMCON,ioos:station:LUMCON:101:1,2019-10-02T05:15:00Z,29.2533,-90.6633,2.274,8.21,11111222 
LUMCON,ioos:station:LUMCON:101:1,2019-10-02T05:30:00Z,29.2533,-90.6633,2.274,8.14,11111222 
LUMCON,ioos:station:LUMCON:101:1,2019-10-02T05:45:00Z,29.2533,-90.6633,2.278,8.08,11111222 
LUMCON,ioos:station:LUMCON:101:1,2019-10-02T06:00:00Z,29.2533,-90.6633,2.278,7.98,11111222 
LUMCON,ioos:station:LUMCON:101:1,2019-10-02T06:15:00Z,29.2533,-90.6633,2.284,7.93,11111222 
LUMCON,ioos:station:LUMCON:101:1,2019-10-02T06:30:00Z,29.2533,-90.6633,2.29,7.89,11111222 
LUMCON,ioos:station:LUMCON:101:1,2019-10-02T06:45:00Z,29.2533,-90.6633,2.293,7.82,11111222 
LUMCON,ioos:station:LUMCON:101:1,2019-10-02T07:00:00Z,29.2533,-90.6633,2.293,7.67,11111222 
LUMCON,ioos:station:LUMCON:101:1,2019-10-02T07:15:00Z,29.2533,-90.6633,2.292,7.65,11111222 
LUMCON,ioos:station:LUMCON:101:1,2019-10-02T07:30:00Z,29.2533,-90.6633,2.291,7.56,11111222 
LUMCON,ioos:station:LUMCON:101:1,2019-10-02T07:45:00Z,29.2533,-90.6633,2.291,7.38,11111222 
LUMCON,ioos:station:LUMCON:101:1,2019-10-02T08:00:00Z,29.2533,-90.6633,2.291,6.91,11111222 
LUMCON,ioos:station:LUMCON:101:1,2019-10-02T08:15:00Z,29.2533,-90.6633,2.294,6.57,11111222 
LUMCON,ioos:station:LUMCON:101:1,2019-10-02T08:30:00Z,29.2533,-90.6633,2.295,5.33,11111222 
LUMCON,ioos:station:LUMCON:101:1,2019-10-02T08:45:00Z,29.2533,-90.6633,2.295,6.67,11111222 
LUMCON,ioos:station:LUMCON:101:1,2019-10-02T09:00:00Z,29.2533,-90.6633,2.295,6.42,11111222 
LUMCON,ioos:station:LUMCON:101:1,2019-10-02T09:15:00Z,29.2533,-90.6633,2.288,5.83,11111222 
LUMCON,ioos:station:LUMCON:101:1,2019-10-02T09:30:00Z,29.2533,-90.6633,2.283,6.77,11111222 
LUMCON,ioos:station:LUMCON:101:1,2019-10-02T09:45:00Z,29.2533,-90.6633,2.275,6.64,11111222 
LUMCON,ioos:station:LUMCON:101:1,2019-10-02T10:00:00Z,29.2533,-90.6633,2.266,6.67,11111222 
LUMCON,ioos:station:LUMCON:101:1,2019-10-02T10:15:00Z,29.2533,-90.6633,2.257,6.6,11111222 
LUMCON,ioos:station:LUMCON:101:1,2019-10-02T10:30:00Z,29.2533,-90.6633,2.246,6.42,11111222 
LUMCON,ioos:station:LUMCON:101:1,2019-10-02T10:45:00Z,29.2533,-90.6633,2.23,6.23,11111222 
LUMCON,ioos:station:LUMCON:101:1,2019-10-02T11:00:00Z,29.2533,-90.6633,2.219,5.76,11111222 
LUMCON,ioos:station:LUMCON:101:1,2019-10-02T11:15:00Z,29.2533,-90.6633,2.209,5.45,11111222 
LUMCON,ioos:station:LUMCON:101:1,2019-10-02T11:30:00Z,29.2533,-90.6633,2.196,5.15,11111222 
LUMCON,ioos:station:LUMCON:101:1,2019-10-02T11:45:00Z,29.2533,-90.6633,2.182,5.01,11111222 
LUMCON,ioos:station:LUMCON:101:1,2019-10-02T12:00:00Z,29.2533,-90.6633,2.167,4.82,11111222 
LUMCON,ioos:station:LUMCON:101:1,2019-10-02T12:15:00Z,29.2533,-90.6633,2.153,4.68,11111222 
LUMCON,ioos:station:LUMCON:101:1,2019-10-02T12:30:00Z,29.2533,-90.6633,2.139,4.54,11111222 
LUMCON,ioos:station:LUMCON:101:1,2019-10-02T12:45:00Z,29.2533,-90.6633,2.127,4.2,11111222 
LUMCON,ioos:station:LUMCON:101:1,2019-10-02T13:00:00Z,29.2533,-90.6633,2.116,4.15,11111222 
LUMCON,ioos:station:LUMCON:101:1,2019-10-02T13:15:00Z,29.2533,-90.6633,2.102,3.87,11111222 
LUMCON,ioos:station:LUMCON:101:1,2019-10-02T13:30:00Z,29.2533,-90.6633,2.089,3.7,11111222 
LUMCON,ioos:station:LUMCON:101:1,2019-10-02T13:45:00Z,29.2533,-90.6633,2.077,3.58,11111222 
LUMCON,ioos:station:LUMCON:101:1,2019-10-02T14:00:00Z,29.2533,-90.6633,2.065,3.51,11111222 
LUMCON,ioos:station:LUMCON:101:1,2019-10-02T14:15:00Z,29.2533,-90.6633,2.053,3.55,11111222 
LUMCON,ioos:station:LUMCON:101:1,2019-10-02T14:30:00Z,29.2533,-90.6633,2.041,3.54,11111222 
LUMCON,ioos:station:LUMCON:101:1,2019-10-02T14:45:00Z,29.2533,-90.6633,2.028,3.56,11111222 
LUMCON,ioos:station:LUMCON:101:1,2019-10-02T15:00:00Z,29.2533,-90.6633,2.019,3.77,11111222 
LUMCON,ioos:station:LUMCON:101:1,2019-10-02T15:15:00Z,29.2533,-90.6633,2.008,3.76,11111222 
LUMCON,ioos:station:LUMCON:101:1,2019-10-02T15:30:00Z,29.2533,-90.6633,2.0,3.86,11111222 
LUMCON,ioos:station:LUMCON:101:1,2019-10-02T15:45:00Z,29.2533,-90.6633,1.99,4.17,11111222 
LUMCON,ioos:station:LUMCON:101:1,2019-10-02T16:00:00Z,29.2533,-90.6633,1.98,4.1,11111222 
LUMCON,ioos:station:LUMCON:101:1,2019-10-02T16:15:00Z,29.2533,-90.6633,1.969,4.24,11111222 
LUMCON,ioos:station:LUMCON:101:1,2019-10-02T16:30:00Z,29.2533,-90.6633,1.959,4.31,11111222 
LUMCON,ioos:station:LUMCON:101:1,2019-10-02T16:45:00Z,29.2533,-90.6633,1.953,4.53,11111222 
LUMCON,ioos:station:LUMCON:101:1,2019-10-02T17:00:00Z,29.2533,-90.6633,1.946,4.51,11111222 
LUMCON,ioos:station:LUMCON:101:1,2019-10-02T17:15:00Z,29.2533,-90.6633,1.938,4.76,11111222 
LUMCON,ioos:station:LUMCON:101:1,2019-10-02T17:30:00Z,29.2533,-90.6633,1.937,4.84,11111222 
LUMCON,ioos:station:LUMCON:101:1,2019-10-02T17:45:00Z,29.2533,-90.6633,1.934,4.99,11111222 
LUMCON,ioos:station:LUMCON:101:1,2019-10-02T18:00:00Z,29.2533,-90.6633,1.93,5.13,11111222 
LUMCON,ioos:station:LUMCON:101:1,2019-10-02T18:15:00Z,29.2533,-90.6633,1.926,5.28,11111222 
LUMCON,ioos:station:LUMCON:101:1,2019-10-02T18:30:00Z,29.2533,-90.6633,1.926,5.38,11111222 
LUMCON,ioos:station:LUMCON:101:1,2019-10-02T18:45:00Z,29.2533,-90.6633,1.922,5.48,11111222 
LUMCON,ioos:station:LUMCON:101:1,2019-10-02T19:00:00Z,29.2533,-90.6633,1.92,5.65,11111222 
LUMCON,ioos:station:LUMCON:101:1,2019-10-02T19:15:00Z,29.2533,-90.6633,1.921,5.69,11111222 
LUMCON,ioos:station:LUMCON:101:1,2019-10-02T19:30:00Z,29.2533,-90.6633,1.922,5.77,11111222 
LUMCON,ioos:station:LUMCON:101:1,2019-10-02T19:45:00Z,29.2533,-90.6633,1.924,5.58,11111222 
LUMCON,ioos:station:LUMCON:101:1,2019-10-02T20:00:00Z,29.2533,-90.6633,1.935,5.1,11111222 
LUMCON,ioos:station:LUMCON:101:1,2019-10-02T20:15:00Z,29.2533,-90.6633,1.944,5.5,11111222 
LUMCON,ioos:station:LUMCON:101:1,2019-10-02T20:30:00Z,29.2533,-90.6633,1.958,6.2,11111222 
LUMCON,ioos:station:LUMCON:101:1,2019-10-02T20:45:00Z,29.2533,-90.6633,1.966,6.52,11111222 
LUMCON,ioos:station:LUMCON:101:1,2019-10-02T21:00:00Z,29.2533,-90.6633,1.973,6.37,11111222 
LUMCON,ioos:station:LUMCON:101:1,2019-10-02T21:15:00Z,29.2533,-90.6633,1.98,6.43,11111222 
LUMCON,ioos:station:LUMCON:101:1,2019-10-02T21:30:00Z,29.2533,-90.6633,1.992,6.66,11111222 
LUMCON,ioos:station:LUMCON:101:1,2019-10-02T21:45:00Z,29.2533,-90.6633,2.004,7.53,11111222 
LUMCON,ioos:station:LUMCON:101:1,2019-10-02T22:00:00Z,29.2533,-90.6633,2.021,7.38,11111222 
LUMCON,ioos:station:LUMCON:101:1,2019-10-02T22:15:00Z,29.2533,-90.6633,2.036,7.36,11111222 
LUMCON,ioos:station:LUMCON:101:1,2019-10-02T22:30:00Z,29.2533,-90.6633,2.052,7.3,11111222 
LUMCON,ioos:station:LUMCON:101:1,2019-10-02T22:45:00Z,29.2533,-90.6633,2.063,7.82,11111222 
LUMCON,ioos:station:LUMCON:101:1,2019-10-02T23:00:00Z,29.2533,-90.6633,2.076,7.89,11111222 
LUMCON,ioos:station:LUMCON:101:1,2019-10-02T23:15:00Z,29.2533,-90.6633,2.091,7.79,11111222 
LUMCON,ioos:station:LUMCON:101:1,2019-10-02T23:30:00Z,29.2533,-90.6633,2.101,7.84,11111222 
LUMCON,ioos:station:LUMCON:101:1,2019-10-02T23:45:00Z,29.2533,-90.6633,2.111,7.8,11111222 
LUMCON,ioos:station:LUMCON:101:1,2019-10-03T00:00:00Z,29.2533,-90.6633,2.118,7.67,11111222 
LUMCON,ioos:station:LUMCON:101:1,2019-10-03T00:15:00Z,29.2533,-90.6633,2.127,7.61,11111222 
LUMCON,ioos:station:LUMCON:101:1,2019-10-03T00:30:00Z,29.2533,-90.6633,2.137,7.67,11111222 
LUMCON,ioos:station:LUMCON:101:1,2019-10-03T00:45:00Z,29.2533,-90.6633,2.146,7.62,11111222 
LUMCON,ioos:station:LUMCON:101:1,2019-10-03T01:00:00Z,29.2533,-90.6633,2.158,7.71,11111222 
LUMCON,ioos:station:LUMCON:101:1,2019-10-03T01:15:00Z,29.2533,-90.6633,2.168,7.77,11111222 
LUMCON,ioos:station:LUMCON:101:1,2019-10-03T01:30:00Z,29.2533,-90.6633,2.178,7.66,11111222 
LUMCON,ioos:station:LUMCON:101:1,2019-10-03T01:45:00Z,29.2533,-90.6633,2.184,7.81,11111222 
LUMCON,ioos:station:LUMCON:101:1,2019-10-03T02:00:00Z,29.2533,-90.6633,2.192,7.81,11111222 
LUMCON,ioos:station:LUMCON:101:1,2019-10-03T02:15:00Z,29.2533,-90.6633,2.2,7.97,11111222 
LUMCON,ioos:station:LUMCON:101:1,2019-10-03T02:30:00Z,29.2533,-90.6633,2.208,7.89,11111222 
LUMCON,ioos:station:LUMCON:101:1,2019-10-03T02:45:00Z,29.2533,-90.6633,2.217,7.83,11111222 
LUMCON,ioos:station:LUMCON:101:1,2019-10-03T03:00:00Z,29.2533,-90.6633,2.227,7.96,11111222 
LUMCON,ioos:station:LUMCON:101:1,2019-10-03T03:15:00Z,29.2533,-90.6633,2.237,7.77,11111222 
LUMCON,ioos:station:LUMCON:101:1,2019-10-03T03:30:00Z,29.2533,-90.6633,2.248,7.82,11111222 
LUMCON,ioos:station:LUMCON:101:1,2019-10-03T03:45:00Z,29.2533,-90.6633,2.255,7.85,11111222 
LUMCON,ioos:station:LUMCON:101:1,2019-10-03T04:00:00Z,29.2533,-90.6633,2.261,7.74,11111222 
LUMCON,ioos:station:LUMCON:101:1,2019-10-03T04:15:00Z,29.2533,-90.6633,2.269,7.76,11111222 
LUMCON,ioos:station:LUMCON:101:1,2019-10-03T04:30:00Z,29.2533,-90.6633,2.278,7.83,11111222 
LUMCON,ioos:station:LUMCON:101:1,2019-10-03T04:45:00Z,29.2533,-90.6633,2.289,7.69,11111222 
LUMCON,ioos:station:LUMCON:101:1,2019-10-03T05:00:00Z,29.2533,-90.6633,2.295,7.67,11111222 
LUMCON,ioos:station:LUMCON:101:1,2019-10-03T05:15:00Z,29.2533,-90.6633,2.308,7.7,11111222 
LUMCON,ioos:station:LUMCON:101:1,2019-10-03T05:30:00Z,29.2533,-90.6633,2.316,7.67,11111222 
LUMCON,ioos:station:LUMCON:101:1,2019-10-03T05:45:00Z,29.2533,-90.6633,2.325,7.59,11111222 
LUMCON,ioos:station:LUMCON:101:1,2019-10-03T06:00:00Z,29.2533,-90.6633,2.33,7.62,11111222 
LUMCON,ioos:station:LUMCON:101:1,2019-10-03T06:15:00Z,29.2533,-90.6633,2.331,7.59,11111222 
LUMCON,ioos:station:LUMCON:101:1,2019-10-03T06:30:00Z,29.2533,-90.6633,2.334,7.44,11111222 
LUMCON,ioos:station:LUMCON:101:1,2019-10-03T06:45:00Z,29.2533,-90.6633,2.335,7.5,11111222 
LUMCON,ioos:station:LUMCON:101:1,2019-10-03T07:00:00Z,29.2533,-90.6633,2.337,7.37,11111222 
LUMCON,ioos:station:LUMCON:101:1,2019-10-03T07:15:00Z,29.2533,-90.6633,2.338,7.22,11111222 
LUMCON,ioos:station:LUMCON:101:1,2019-10-03T07:30:00Z,29.2533,-90.6633,2.337,7.24,11111222 
LUMCON,ioos:station:LUMCON:101:1,2019-10-03T07:45:00Z,29.2533,-90.6633,2.337,6.58,11111222 
LUMCON,ioos:station:LUMCON:101:1,2019-10-03T08:00:00Z,29.2533,-90.6633,2.336,6.37,11111222 
LUMCON,ioos:station:LUMCON:101:1,2019-10-03T08:15:00Z,29.2533,-90.6633,2.33,6.45,11111222 
LUMCON,ioos:station:LUMCON:101:1,2019-10-03T08:30:00Z,29.2533,-90.6633,2.332,6.19,11111222 
LUMCON,ioos:station:LUMCON:101:1,2019-10-03T08:45:00Z,29.2533,-90.6633,2.331,6.27,11111222 
LUMCON,ioos:station:LUMCON:101:1,2019-10-03T09:00:00Z,29.2533,-90.6633,2.328,6.19,11111222 
LUMCON,ioos:station:LUMCON:101:1,2019-10-03T09:15:00Z,29.2533,-90.6633,2.321,6.38,11111222 
LUMCON,ioos:station:LUMCON:101:1,2019-10-03T09:30:00Z,29.2533,-90.6633,2.315,6.2,11111222 
LUMCON,ioos:station:LUMCON:101:1,2019-10-03T09:45:00Z,29.2533,-90.6633,2.304,6.29,11111222 
LUMCON,ioos:station:LUMCON:101:1,2019-10-03T10:00:00Z,29.2533,-90.6633,2.293,6.17,11111222 
LUMCON,ioos:station:LUMCON:101:1,2019-10-03T10:15:00Z,29.2533,-90.6633,2.28,6.14,11111222 
LUMCON,ioos:station:LUMCON:101:1,2019-10-03T10:30:00Z,29.2533,-90.6633,2.268,5.76,11111222 
LUMCON,ioos:station:LUMCON:101:1,2019-10-03T10:45:00Z,29.2533,-90.6633,2.259,5.45,11111222 
LUMCON,ioos:station:LUMCON:101:1,2019-10-03T11:00:00Z,29.2533,-90.6633,2.246,5.21,11111222 
LUMCON,ioos:station:LUMCON:101:1,2019-10-03T11:15:00Z,29.2533,-90.6633,2.232,4.95,11111222 
LUMCON,ioos:station:LUMCON:101:1,2019-10-03T11:30:00Z,29.2533,-90.6633,2.219,4.99,11111222 
LUMCON,ioos:station:LUMCON:101:1,2019-10-03T11:45:00Z,29.2533,-90.6633,2.209,4.7,11111222 
LUMCON,ioos:station:LUMCON:101:1,2019-10-03T12:00:00Z,29.2533,-90.6633,2.198,4.45,11111222 
LUMCON,ioos:station:LUMCON:101:1,2019-10-03T12:15:00Z,29.2533,-90.6633,2.184,4.25,11111222 
LUMCON,ioos:station:LUMCON:101:1,2019-10-03T12:30:00Z,29.2533,-90.6633,2.172,4.0,11111222 
LUMCON,ioos:station:LUMCON:101:1,2019-10-03T12:45:00Z,29.2533,-90.6633,2.16,3.71,11111222 
LUMCON,ioos:station:LUMCON:101:1,2019-10-03T13:00:00Z,29.2533,-90.6633,2.151,3.64,11111222 
LUMCON,ioos:station:LUMCON:101:1,2019-10-03T13:15:00Z,29.2533,-90.6633,2.141,3.66,11111222 
LUMCON,ioos:station:LUMCON:101:1,2019-10-03T13:30:00Z,29.2533,-90.6633,2.13,3.47,11111222 
LUMCON,ioos:station:LUMCON:101:1,2019-10-03T13:45:00Z,29.2533,-90.6633,2.12,3.5,11111222 
LUMCON,ioos:station:LUMCON:101:1,2019-10-03T14:00:00Z,29.2533,-90.6633,2.109,3.48,11111222 
LUMCON,ioos:station:LUMCON:101:1,2019-10-03T14:15:00Z,29.2533,-90.6633,2.099,3.54,11111222 
LUMCON,ioos:station:LUMCON:101:1,2019-10-03T14:30:00Z,29.2533,-90.6633,2.087,3.7,11111222 
LUMCON,ioos:station:LUMCON:101:1,2019-10-03T14:45:00Z,29.2533,-90.6633,2.077,3.53,11111222 
LUMCON,ioos:station:LUMCON:101:1,2019-10-03T15:00:00Z,29.2533,-90.6633,2.066,3.75,11111222 
LUMCON,ioos:station:LUMCON:101:1,2019-10-03T15:15:00Z,29.2533,-90.6633,2.056,3.7,11111222 
LUMCON,ioos:station:LUMCON:101:1,2019-10-03T15:30:00Z,29.2533,-90.6633,2.044,3.97,11111222 
LUMCON,ioos:station:LUMCON:101:1,2019-10-03T15:45:00Z,29.2533,-90.6633,2.036,3.91,11111222 
LUMCON,ioos:station:LUMCON:101:1,2019-10-03T16:00:00Z,29.2533,-90.6633,2.028,4.17,11111222 
LUMCON,ioos:station:LUMCON:101:1,2019-10-03T16:15:00Z,29.2533,-90.6633,2.02,4.29,11111222 
LUMCON,ioos:station:LUMCON:101:1,2019-10-03T16:30:00Z,29.2533,-90.6633,2.015,4.38,11111222 
LUMCON,ioos:station:LUMCON:101:1,2019-10-03T16:45:00Z,29.2533,-90.6633,2.007,4.69,11111222 